Content
SEND FEEDBACK

Daily
Averages
Monthly
Summary
United States of America

MAURICEVILLE, TEXAS


Home > North America > United States > Texas
Elevation: 20 feet     Latitude: 30 14N     Longitude: 093 44W

WEATHER
 
SELECT A DAY
Number of Records: 115,392;   Date Range: 8/25/05 - 10/21/14
 
SHARE

PRINT THIS DATA

[ ← Previous Day ]
WEATHER ALMANAC - OCTOBER 22, 2013
[ Next Day → ]
[ °C ]   °F
Weather ElementAverageHighLow
Temperature64.4 °F70.3 °F (10:15 am)53.1 °F (11:15 pm)
Dewpoint60.4 °F65.1 °F (10:15 am)52.5 °F (11:15 pm)
Humidity87.4 %98 % (6:35 am)64 % (5:15 pm)
Barometer30.04 in30.09 in (10:35 pm)29.98 in (4:35 am)
Wind Speed4.4 mph12.7 mph (11:35 am)
Wind Gust18.4 mph (11:35 am)
Weather ElementAverage
Visibility8.2 mi
Wind DirectionSSW (189.3 °)

Weather ElementTotal
Precipitation---
Heating Degree Days3.3 (Base 65)
Growing Degree Days11.7 (Base 50)
Averaged from 70 records on October 22, 2013
WEATHER CONDITIONS BREAKOUT
WIND DIRECTION BREAKOUT
WEATHER BY HOUR - OCTOBER 22, 2013
[ °C ]   °F
Local TimeTemperatureDewpointHumidityBarometerVisibilityWind DirectionWind SpeedGust SpeedPrecipitationEventsConditions
12:35 AM65.7 °F64.4 °F96 %30.00 in10.0 miCalmScattered Clouds
12:55 AM65.7 °F64.4 °F96 %30.00 in7.0 miCalmOvercast
1:15 AM65.3 °F63.9 °F95 %29.99 in7.0 miCalmScattered Clouds
1:35 AM64.9 °F63.7 °F96 %30.00 in7.0 miCalmScattered Clouds
1:55 AM65.3 °F63.9 °F95 %30.00 in7.0 miCalmMostly Cloudy
2:15 AM64.9 °F63.7 °F96 %30.00 in7.0 miCalmOvercast
2:35 AM64.8 °F63.7 °F96 %30.00 in7.0 miCalmOvercast
2:55 AM64.9 °F63.7 °F96 %29.99 in7.0 miNE (50°)3.5 mphOvercast
3:15 AM64.9 °F63.9 °F96 %30.00 in7.0 miCalmOvercast
3:35 AM64.8 °F63.7 °F96 %29.99 in7.0 miCalmMostly Cloudy
3:55 AM64.4 °F63.1 °F96 %29.99 in5.0 miCalmScattered Clouds
4:15 AM63.5 °F62.6 °F97 %29.99 in3.0 miCalmScattered Clouds
4:35 AM63.5 °F62.6 °F97 %29.98 in4.0 miCalmMostly Cloudy
4:55 AM63.7 °F63.0 °F97 %29.99 in4.0 miCalmMostly Cloudy
5:15 AM63.5 °F62.6 °F97 %29.99 in4.0 miCalmScattered Clouds
5:35 AM63.0 °F62.2 °F97 %29.99 in2.0 miCalmMostly Cloudy
5:55 AM63.5 °F62.8 °F97 %30.00 in3.0 miNW (310°)3.5 mphMostly Cloudy
6:15 AM63.7 °F63.0 °F97 %30.00 in4.0 miWNW (290°)3.5 mphOvercast
6:35 AM64.0 °F63.5 °F98 %30.01 in4.0 miWNW (290°)6.9 mphOvercast
6:55 AM64.0 °F63.5 °F98 %30.01 in5.0 miNNW (330°)3.5 mphOvercast
7:15 AM64.0 °F63.3 °F97 %30.02 in5.0 miNW (320°)4.6 mphOvercast
7:35 AM64.0 °F63.1 °F97 %30.03 in5.0 miNW (320°)5.8 mphOvercast
7:55 AM64.0 °F63.1 °F97 %30.03 in5.0 miNNW (330°)4.6 mphOvercast
8:15 AM64.2 °F63.3 °F97 %30.03 in5.0 miNNW (330°)5.8 mphMostly Cloudy
8:35 AM65.1 °F63.7 °F95 %30.03 in7.0 miNW (320°)5.8 mphMostly Cloudy
8:55 AM66.4 °F64.4 °F93 %30.04 in10.0 miNW (320°)5.8 mphMostly Cloudy
9:15 AM66.0 °F63.9 °F93 %30.04 in10.0 miNW (320°)9.2 mphOvercast
9:35 AM66.9 °F64.4 °F92 %30.05 in10.0 miNNW (330°)9.2 mphMostly Cloudy
9:55 AM68.7 °F64.6 °F87 %30.05 in10.0 miNNW (330°)8.1 mphScattered Clouds
10:15 AM70.3 °F65.1 °F83 %30.05 in10.0 miNW (310°)11.5 mph17.3 mphScattered Clouds
10:35 AM69.1 °F64.6 °F86 %30.05 in10.0 miNW (320°)10.4 mph16.1 mphMostly Cloudy
10:55 AM69.4 °F64.2 °F83 %30.06 in10.0 miNW (320°)10.4 mph16.1 mphOvercast
11:15 AM69.1 °F64.2 °F84 %30.06 in10.0 miNW (320°)9.2 mph17.3 mphOvercast
11:35 AM68.0 °F63.7 °F86 %30.06 in10.0 miNW (310°)12.7 mph18.4 mphOvercast
11:55 AM66.7 °F63.5 °F89 %30.06 in10.0 miNW (310°)9.2 mphOvercast
12:15 PM68.2 °F63.7 °F85 %30.06 in10.0 miNNW (330°)11.5 mphOvercast
12:35 PM68.7 °F63.3 °F83 %30.06 in10.0 miNNW (330°)9.2 mphOvercast
12:55 PM68.2 °F63.0 °F83 %30.06 in10.0 miNW (310°)9.2 mphOvercast
1:15 PM68.2 °F62.2 °F81 %30.06 in10.0 miNW (320°)9.2 mphOvercast
1:35 PM68.4 °F61.9 °F80 %30.06 in10.0 miNW (320°)9.2 mphOvercast
1:55 PM67.6 °F61.5 °F81 %30.05 in10.0 miNNW (330°)8.1 mphOvercast
2:15 PM67.1 °F61.2 °F81 %30.05 in10.0 miNW (320°)6.9 mphOvercast
2:35 PM66.2 °F60.4 °F82 %30.05 in10.0 miNNW (330°)9.2 mph16.1 mphOvercast
2:55 PM65.7 °F60.4 °F83 %30.04 in10.0 miNW (310°)8.1 mphOvercast
3:15 PM65.5 °F59.5 °F81 %30.04 in10.0 miNorth (350°)9.2 mphOvercast
3:35 PM66.7 °F59.0 °F76 %30.04 in10.0 miNNW (330°)8.1 mphOvercast
3:55 PM68.4 °F57.7 °F69 %30.03 in10.0 miNNW (340°)9.2 mphScattered Clouds
4:15 PM68.9 °F58.1 °F68 %30.03 in10.0 miNorth (360°)6.9 mphScattered Clouds
4:35 PM69.6 °F58.1 °F67 %30.03 in10.0 miNorth (350°)5.8 mphMostly Cloudy
4:55 PM69.3 °F57.0 °F65 %30.03 in10.0 miNNW (330°)9.2 mphScattered Clouds
5:15 PM69.6 °F56.8 °F64 %30.03 in10.0 miNNW (340°)9.2 mphClear
5:35 PM69.3 °F56.8 °F65 %30.03 in10.0 miNNW (340°)6.9 mphClear
5:55 PM68.9 °F56.3 °F64 %30.03 in10.0 miNW (320°)4.6 mphClear
6:15 PM68.0 °F56.7 °F67 %30.03 in10.0 miCalmClear
6:35 PM66.2 °F56.7 °F71 %30.03 in10.0 miCalmClear
6:55 PM64.4 °F56.5 °F75 %30.04 in10.0 miNW (310°)4.6 mphClear
7:15 PM63.9 °F55.6 °F74 %30.05 in10.0 miCalmClear
7:35 PM62.6 °F54.7 °F75 %30.05 in10.0 miNW (310°)3.5 mphClear
7:55 PM61.9 °F54.5 °F77 %30.05 in10.0 miCalmClear
8:15 PM59.5 °F54.7 °F84 %30.06 in10.0 miCalmClear
8:35 PM57.7 °F54.5 °F89 %30.07 in10.0 miCalmClear
8:55 PM57.7 °F54.5 °F89 %30.07 in10.0 miCalmClear
9:15 PM55.6 °F54.0 °F94 %30.08 in10.0 miCalmClear
9:55 PM53.8 °F53.1 °F97 %30.08 in5.0 miCalmClear
10:15 PM54.1 °F53.6 °F98 %30.08 in10.0 miCalmClear
10:35 PM53.6 °F52.9 °F97 %30.09 in7.0 miCalmClear
10:55 PM53.2 °F52.7 °F98 %30.09 in7.0 miCalmClear
11:15 PM53.1 °F52.5 °F98 %30.09 in10.0 miWNW (290°)3.5 mphClear
11:35 PM54.9 °F54.0 °F97 %30.09 in10.0 miWNW (300°)4.6 mphClear
11:55 PM56.8 °F53.6 °F89 %30.09 in10.0 miCalmClear
Hourly data recorded from KORG, located miles away from Mauriceville, Texas







STORIES FROM OUR PARTNERS